Location: Cheyres
(46.8153°N, 6.7877°E)
Time: 20:56:42
(UTC+00:00)

PicSat - Pass Details

Date: 07 July 2022
Orbit: 446 x 455 km, 97.4° (Epoch: 13 August)

Event Time Altitude Azimuth Distance (km) Brightness Sun altitude
Exits shadow 20:56:29 14° 107° (ESE) 1,391 ? -11.7°
Maximum altitude 20:58:24 21° 67° (ENE) 1,104 ? -11.9°
Drops below altitude 10° 21:01:03 10° 17° (NNE) 1,623 ? -12.2°
Sets 21:03:27 0° 1° (N) 2,506 ? -12.4°
